Weather reports worldwide

Advertisment
Wijk aan Zee, Netherlands (6257): temperature & dewpoint: 20.10.2020 10:00:00 - 26.10.2020 10:00:00 (CET)Wijk aan Zee, Netherlands (6257): temperature 5cm: 20.10.2020 10:00:00 - 26.10.2020 10:00:00 (CET)Wijk aan Zee, Netherlands (6257): precipitation: 20.10.2020 10:00:00 - 26.10.2020 10:00:00 (CET)
Date & Time tt [°C] td [°C] tt 5cm [°C] rr [mm]
26.10.2020 10:00:00 10,0 6,7 9,9 0,0
26.10.2020 09:00:00 9,8 7,1 9,7 0,0
26.10.2020 08:00:00 9,6 7,4 9,3 0,0
26.10.2020 07:00:00 9,4 7,7 9,1 0,0
26.10.2020 06:00:00 9,0 7,5 8,5 0,0
26.10.2020 05:00:00 9,4 7,6 9,0 0,0
26.10.2020 04:00:00 9,3 7,5 8,7 0,0
26.10.2020 03:00:00 9,6 7,4 9,0 0,0
26.10.2020 02:00:00 10,3 8,0 9,7 0,0
26.10.2020 01:00:00 10,5 8,3 9,9 0,0
26.10.2020 00:00:00 10,8 8,6 10,2 0,0
25.10.2020 23:00:00 10,6 8,4 10,0 0,0
25.10.2020 22:00:00 10,5 8,1 10,0 0,0
25.10.2020 21:00:00 10,5 7,4 10,0 0,0
25.10.2020 20:00:00 10,3 7,6 9,8 0,0
25.10.2020 19:00:00 10,3 7,5 9,9 0,0
25.10.2020 18:00:00 10,5 7,6 10,0 0,0
25.10.2020 17:00:00 11,2 8,4 11,0 0,0
25.10.2020 16:00:00 11,5 8,5 11,2 0,0
25.10.2020 15:00:00 11,3 8,2 10,8 0,1
25.10.2020 14:00:00 12,8 9,4 12,7 0,0
25.10.2020 13:00:00 12,6 10,1 11,9 0,0
25.10.2020 12:00:00 12,5 9,9 12,3 0,0
25.10.2020 11:00:00 12,3 9,6 12,2 0,0
25.10.2020 10:00:00 12,4 9,7 12,3 0,0
25.10.2020 09:00:00 12,1 9,7 11,7 0,0
25.10.2020 08:00:00 12,4 10,3 12,0 0,0
25.10.2020 07:00:00 11,8 10,5 11,6 0,8
25.10.2020 06:00:00 11,9 10,5 11,6 1,3
25.10.2020 05:00:00 12,0 10,6 11,6 1,6
25.10.2020 04:00:00 11,5 10,0 11,2 3,6
25.10.2020 03:00:00 16,1 11,1 15,8 0,0
25.10.2020 02:00:00 16,4 11,4 16,1 0,0
25.10.2020 01:00:00 - - - -
25.10.2020 00:00:00 16,6 11,9 16,3 0,0
24.10.2020 23:00:00 16,6 12,1 16,2 0,0
24.10.2020 22:00:00 16,3 12,3 15,8 0,0
24.10.2020 21:00:00 16,1 12,2 15,6 0,0
24.10.2020 20:00:00 15,4 12,0 15,1 0,0
24.10.2020 19:00:00 15,4 12,0 15,0 0,0
24.10.2020 18:00:00 15,5 11,9 15,1 0,0
24.10.2020 17:00:00 15,3 11,5 15,1 0,0
24.10.2020 16:00:00 15,6 11,3 15,5 0,0
24.10.2020 15:00:00 15,5 11,0 15,7 0,0
24.10.2020 14:00:00 15,0 10,0 14,9 0,0
24.10.2020 13:00:00 14,5 10,3 14,9 0,0
24.10.2020 12:00:00 14,1 10,6 14,5 0,0
24.10.2020 11:00:00 13,9 11,0 13,8 0,0
24.10.2020 10:00:00 12,9 11,2 12,6 0,0
24.10.2020 09:00:00 12,0 11,0 11,7 0,2
24.10.2020 08:00:00 12,3 9,6 12,1 0,0
24.10.2020 07:00:00 12,9 8,7 12,5 0,0
24.10.2020 06:00:00 13,1 7,9 12,5 0,0
24.10.2020 05:00:00 13,0 6,4 12,3 0,0
24.10.2020 04:00:00 13,1 7,6 12,3 0,0
24.10.2020 03:00:00 13,5 10,0 12,8 0,0
24.10.2020 02:00:00 13,3 11,8 13,1 0,0
24.10.2020 01:00:00 13,8 11,2 13,5 0,0
24.10.2020 00:00:00 14,1 12,0 13,6 0,0
23.10.2020 23:00:00 14,2 12,2 13,9 0,0
23.10.2020 22:00:00 14,0 12,0 13,5 0,0
23.10.2020 21:00:00 14,4 12,1 14,1 0,0
23.10.2020 20:00:00 14,6 11,8 14,2 0,0
23.10.2020 19:00:00 14,5 11,9 14,2 0,0
23.10.2020 18:00:00 14,4 11,9 13,8 0,0
23.10.2020 17:00:00 14,4 12,3 14,3 0,0
23.10.2020 16:00:00 14,7 12,1 14,7 0,0
23.10.2020 15:00:00 14,9 12,5 15,5 0,0
23.10.2020 14:00:00 15,9 11,7 16,8 0,0
23.10.2020 13:00:00 16,5 12,2 18,0 0,0
23.10.2020 12:00:00 15,8 11,9 16,9 0,0
23.10.2020 11:00:00 15,3 11,5 15,8 0,0
23.10.2020 10:00:00 13,4 11,9 14,2 0,0
23.10.2020 09:00:00 11,2 11,0 11,4 0,0
23.10.2020 08:00:00 10,9 10,8 10,8 0,0
23.10.2020 07:00:00 11,2 10,9 9,8 0,0
23.10.2020 06:00:00 12,1 11,8 11,2 0,0
23.10.2020 05:00:00 11,2 10,9 9,3 0,0
23.10.2020 04:00:00 10,8 10,2 7,3 0,0
23.10.2020 03:00:00 10,8 9,2 9,2 0,0
23.10.2020 02:00:00 13,1 10,8 12,0 0,0
23.10.2020 01:00:00 12,7 10,1 11,6 0,0
23.10.2020 00:00:00 13,6 10,5 13,2 0,0
22.10.2020 23:00:00 13,8 12,0 13,4 0,0
22.10.2020 22:00:00 13,9 12,5 13,4 0,0
22.10.2020 21:00:00 14,2 12,3 13,4 0,0
22.10.2020 20:00:00 14,0 12,3 13,4 0,0
22.10.2020 19:00:00 14,1 12,0 13,5 0,0
22.10.2020 18:00:00 14,0 11,8 13,5 0,0
22.10.2020 17:00:00 14,4 11,6 14,1 0,0
22.10.2020 16:00:00 14,7 11,6 15,0 0,0
22.10.2020 15:00:00 15,1 11,7 15,4 0,0
22.10.2020 14:00:00 14,8 11,6 15,0 0,0
22.10.2020 13:00:00 14,7 11,5 14,8 0,0
22.10.2020 12:00:00 14,6 11,4 14,9 0,0
22.10.2020 11:00:00 14,4 11,8 15,0 0,0
22.10.2020 10:00:00 14,2 11,9 14,2 0,0
22.10.2020 09:00:00 14,1 12,0 14,1 0,0
22.10.2020 08:00:00 13,7 11,8 13,1 0,0
22.10.2020 07:00:00 13,6 12,0 13,0 0,0
22.10.2020 06:00:00 14,1 12,0 13,6 0,0
22.10.2020 05:00:00 14,3 12,0 13,6 0,0
22.10.2020 04:00:00 14,1 12,1 13,5 0,0
22.10.2020 03:00:00 14,2 12,6 13,6 0,0
22.10.2020 02:00:00 14,7 13,2 14,1 0,0
22.10.2020 01:00:00 14,3 13,1 13,7 0,0
22.10.2020 00:00:00 14,3 13,3 13,8 0,0
21.10.2020 23:00:00 14,4 13,3 14,0 0,0
21.10.2020 22:00:00 14,2 13,6 13,8 2,1
21.10.2020 21:00:00 14,9 13,2 14,4 0,3
21.10.2020 20:00:00 15,1 13,2 14,6 0,0
21.10.2020 19:00:00 15,9 13,1 15,5 0,0
21.10.2020 18:00:00 16,5 12,9 15,9 0,0
21.10.2020 17:00:00 17,0 13,4 16,6 0,0
21.10.2020 16:00:00 17,6 13,6 17,2 0,0
21.10.2020 15:00:00 18,9 13,2 18,2 0,0
21.10.2020 14:00:00 16,5 13,0 15,8 0,0
21.10.2020 13:00:00 15,0 12,4 14,5 0,1
21.10.2020 12:00:00 13,6 12,8 13,4 1,7
21.10.2020 11:00:00 13,2 12,6 13,1 1,6
21.10.2020 10:00:00 12,9 12,4 12,7 3,4
21.10.2020 09:00:00 12,9 12,4 12,9 1,9
21.10.2020 08:00:00 13,2 12,6 13,0 1,1
21.10.2020 07:00:00 13,2 12,6 13,1 0,6
21.10.2020 06:00:00 13,4 12,6 13,2 0,1
21.10.2020 05:00:00 13,5 12,7 13,3 0,2
21.10.2020 04:00:00 13,9 12,7 13,7 0,0
21.10.2020 03:00:00 14,2 12,9 14,1 0,0
21.10.2020 02:00:00 14,4 12,9 14,3 0,0
21.10.2020 01:00:00 14,9 12,9 14,7 0,0
21.10.2020 00:00:00 15,3 12,9 15,0 0,0
20.10.2020 23:00:00 15,1 12,8 14,8 0,0
20.10.2020 22:00:00 14,7 12,5 14,4 0,0
20.10.2020 21:00:00 15,1 12,3 14,7 0,0
20.10.2020 20:00:00 15,2 11,9 14,7 0,0
20.10.2020 19:00:00 15,1 11,4 14,7 0,0
20.10.2020 18:00:00 15,3 11,2 14,8 0,0
20.10.2020 17:00:00 15,0 11,6 14,6 0,0
20.10.2020 16:00:00 14,6 11,2 14,4 0,0
20.10.2020 15:00:00 14,6 10,7 14,4 0,0
20.10.2020 14:00:00 14,1 10,3 13,8 0,0
20.10.2020 13:00:00 13,0 9,4 12,9 0,0
20.10.2020 12:00:00 11,8 8,8 11,4 0,0
20.10.2020 11:00:00 11,5 8,0 11,4 0,0
20.10.2020 10:00:00 10,7 7,2 10,6 0,0

tt = temperature
td = dewpoint
tt 5cm = temperature 5cm
rr = precipitation

Next stations